User: anonymous   Login
Location: Unspecified
(0.0000°N, 0.0000°E)
Time: 18:50:24
(UTC+00:00)
Language:

Transit VBN-1 - Orbit

View from above orbital plane
View from above orbital plane
View from above satellite
View from above satellite

Ground track
Ground track

The orbit data is extracted from the following two-line orbital elements,

1   670U 63038B   17145.58727444 +.00000042 +00000-0 +56625-4 0  9996
2   670 090.0722 325.0416 0042726 143.1390 258.5633 13.44271709629645
Epoch (UTC): 25 May 2017 14:05:40
Eccentricity: 0.0042726
inclination: 90.0722°
perigee height: 1061 km
apogee height: 1125 km
right ascension of ascending node: 325.0416°
argument of perigee: 143.1390°
revolutions per day: 13.44271709
mean anomaly at epoch: 258.5633°
orbit number at epoch: 62964

The dashed part of the orbit path shows where the satellite is in the earth's shadow,  

DLR